Regional Weather Roundup
Issued by NWS

Home | Current Version | Previous Version | Text Only | Print | Product List | Glossary On
Versions: 1 2 3 4 5 6 7 8 9 10 11 12 13 14 15 16 17 18 19 20 21 22 23 24 25 26 27 28 29 30 31 32 33 34 35 36 37 38 39 40 41 42 43 44 45 46 47 48 49 50
234
ASUS45 KSLC 111510
RWRUT

UTAH REGIONAL WEATHER ROUNDUP
NATIONAL WEATHER SERVICE SALT LAKE CITY UT
800 AM MST SUN DEC 11 2016

UTZ001>011-023>025-111600-

NORTHERN UTAH

CITY           SKY/WX    TMP DP  RH WIND       PRES   REMARKS
BRIGHAM CITY     N/A     32  30  92 CALM      30.08R
HILL AFB       CLOUDY    31  30  95 S9        30.07R WCI  23
LOGAN          PTCLDY    29  23  78 VRB5      30.05R WCI  24
OGDEN          CLOUDY    32  31  96 S7        30.07R WCI  26
SALT LAKE CITY MOCLDY    35  32  88 SW6       30.09R WCI  30
WENDOVER       PTCLDY    32  25  74 E3        30.08R
HEBER CITY     CLOUDY    32  27  80 N7        30.02R WCI  26

$$

UTZ011>015-024>027-111600-

CENTRAL/NORTHEAST UTAH

CITY           SKY/WX    TMP DP  RH WIND       PRES   REMARKS
PROVO AIRPORT  PTCLDY    32  31  96 NW12      30.10R WCI  23
MOAB/CANYONLAN CLEAR     28  25  88 CALM      30.02R
DELTA          MOCLDY    34  34 100 CALM      30.08R
PRICE          PTCLDY    24  24 100 S3        30.01R FOG
RICHFIELD      CLOUDY    36  34  93 N8        30.11R WCI  29
ROOSEVELT      PTCLDY    25  23  93 CALM      30.00R
VERNAL         CLOUDY    30  28  92 CALM      30.00R FOG

$$

UTZ013>016-019>022-027-111600-

SOUTHERN UTAH

CITY           SKY/WX    TMP DP  RH WIND       PRES   REMARKS
BRYCE CANYON   MOCLDY    35  29  78 W15       30.09R WCI  25
CEDAR CITY     MOCLDY    35  32  88 SW7       30.07R WCI  29
MILFORD        CLEAR     31  29  92 CALM      30.06R
ST GEORGE      MOSUNNY   39  34  81 S3        30.11R
HANKSVILLE     CLEAR     28  21  74 W7        30.05R WCI  21
KANAB          MOCLDY    41  37  87 E3        30.14
BLANDING       CLOUDY    37  29  73 N5        30.10R WCI  33

$$

REGIONAL REPORTS     COLORADO/ARIZONA

CITY           SKY/WX    TMP DP  RH WIND       PRES   REMARKS
CRAIG, CO      LGT SNOW  33  29  85 W10       29.94R FOG     WCI  25
GRAND JUNCTION CLOUDY    30  30 100 N3        30.02R
RIFLE, CO      PTCLDY    30  29  96 SE6       29.99R WCI  24
MONTROSE, CO   CLOUDY    34  32  92 SE7       30.04R WCI  28
CORTEZ, CO     CLOUDY    38  37  97 SE3       30.04R
COLORADO CITY    N/A     34  32  93 SE3       30.13R
PAGE, AZ       CLOUDY    47  33  58 S6        30.04R
GRAND CANYON   MOCLDY    31  31 100 SW3       30.14R
KINGMAN, AZ    MOCLDY    42  34  73 S5        30.08R
FLAGSTAFF, AZ  CLOUDY    37  34  89 S6        30.15R WCI  32

$$

REGIONAL REPORTS    NEVADA/IDAHO/WYOMING

CITY           SKY/WX    TMP DP  RH WIND       PRES   REMARKS
LAS VEGAS, NV  MOCLDY    46  30  53 W5        30.07R
ELY, NY        CLEAR     32  31  96 W6        30.09S WCI  26
ELKO, NV       CLEAR     24  20  84 W5        30.10R WCI  18
POCATELLO, ID  MOCLDY    29  26  89 SW18      30.04S WCI  16
BURLEY, ID     CLEAR     30  24  78 SW9       30.06R WCI  22
FORT BRIDGER,  CLOUDY    25  21  86 W16       30.00R WCI  12
EVANSTON, WY   CLOUDY    23  17  78 W18       29.99R WCI   9
ROCK SPRINGS,  CLOUDY    23  17  78 W20       29.94R WCI   8

$$




USA.gov is the U.S. government's official web portal to all federal, state and local government web resources and services.